Tracking 19193 objects as of 22-Jun-2018
HD Live streaming from Space Station
objects crossing your sky now

FENGYUN 1C DEB

Track FENGYUN 1C DEB now!
10-day predictions


NORAD ID: 32438
Int'l Code: 1999-025DBA
Perigee: 752.7 km
Apogee: 805.1 km
Inclination: 99.5 °
Period: 100.3 minutes
Semi major axis: 7149 km
RCS: 0.0074 m2 (small)
Launch date: May 10, 1999
Source: People's Republic of China (PRC)
Launch site: Taiyaun Space Center, China (TSC)

Note: This is SATELLITE DEBRIS
aabbcc
Your satellite tracking list
Your tracking list is empty




NASA's NSSDC Master Catalog

Two Line Element Set (TLE):
1 32438U 99025DBA 18168.82169788  .00000802  00000-0  29184-3 0  9995
2 32438  99.4514 180.7149 0036650 326.6286  33.2587 14.35983391569539
Source of the keplerian elements: AFSPC